QPF
0.00 0.00 0.00 0.00 0.00 0.00 0.00 0.00 0.00 0.00 0.00 0.00 0.00 0.00 0.00 0.00 0.00 0.00 0.00 0.00 0.00 0.00 0.00 0.00 0.00 0.01 0.00 0.00 0.00 0.00 0.00 0.00 0.01 0.01 0.01 0.01 0.01 0.01 0.01 0.01 0.01 0.01 0.01 0.01 0.01 0.01 0.00 0.00 0.00
0.00 0.00 0.00 0.00 0.00 0.00 0.00 0.00 0.00 0.00 0.00 0.00 0.00 0.00 0.00 0.00 0.00 0.00 0.00 0.00 0.00 0.00 0.00 0.00 0.00 0.00 0.00 0.00 0.00 0.00 0.00 0.01 0.01 0.01 0.01 0.01 0.01 0.01 0.00 0.00 0.01 0.01 0.01 0.01 0.01 0.00 0.00 0.00 0.00
0.00 0.00 0.00 0.00 0.00 0.00 0.00 0.00 0.00 0.00 0.00 0.00 0.00 0.00 0.00 0.00 0.00 0.00 0.00 0.00 0.00 0.00 0.00 0.00 0.00 0.00 0.00 0.00 0.00 0.00 0.00 0.01 0.01 0.01 0.01 0.01 0.01 0.01 0.01 0.00 0.01 0.01 0.00 0.00 0.00 0.00 0.00 0.00 0.00
0.00 0.00 0.00 0.00 0.00 0.00 0.00 0.00 0.00 0.00 0.00 0.00 0.00 0.00 0.00 0.00 0.00 0.00 0.00 0.00 0.00 0.00 0.00 0.00 0.00 0.00 0.00 0.00 0.00 0.00 0.01 0.00 0.00 0.01 0.01 0.01 0.01 0.01 0.01 0.00 0.01 0.00 0.00 0.00 0.00 0.00 0.00 0.00 0.00
0.00 0.00 0.00 0.00 0.00 0.00 0.00 0.00 0.00 0.00 0.00 0.00 0.00 0.00 0.00 0.00 0.00 0.00 0.00 0.00 0.00 0.00 0.00 0.00 0.00 0.00 0.00 0.00 0.00 0.00 0.01 0.00 0.00 0.01 0.01 0.01 0.01 0.01 0.01 0.01 0.00 0.00 0.00 0.00 0.00 0.00 0.00 0.00 0.00
0.00 0.00 0.00 0.00 0.00 0.00 0.00 0.00 0.00 0.00 0.00 0.00 0.00 0.00 0.00 0.00 0.00 0.00 0.00 0.00 0.00 0.00 0.00 0.00 0.00 0.00 0.00 0.00 0.00 0.00 0.00 0.00 0.00 0.01 0.01 0.01 0.01 0.01 0.01 0.00 0.00 0.00 0.00 0.00 0.00 0.00 0.00 0.00 0.00
0.00 0.00 0.00 0.00 0.00 0.00 0.00 0.00 0.00 0.00 0.00 0.00 0.00 0.00 0.00 0.00 0.00 0.00 0.00 0.00 0.00 0.00 0.00 0.00 0.00 0.01 0.01 0.00 0.00 0.00 0.00 0.00 0.00 0.00 0.00 0.01 0.01 0.01 0.00 0.00 0.00 0.00 0.00 0.00 0.00 0.00 0.00 0.00 0.00
0.00 0.00 0.00 0.00 0.00 0.00 0.00 0.00 0.00 0.00 0.00 0.00 0.00 0.00 0.00 0.00 0.00 0.00 0.00 0.00 0.00 0.00 0.00 0.01 0.01 0.01 0.01 0.01 0.01 0.00 0.00 0.00 0.00 0.00 0.00 0.00 0.00 0.00 0.00 0.00 0.00 0.00 0.00 0.00 0.00 0.00 0.00 0.00 0.00
0.00 0.00 0.00 0.00 0.00 0.00 0.00 0.00 0.00 0.00 0.00 0.00 0.00 0.00 0.00 0.00 0.00 0.00 0.00 0.01 0.01 0.01 0.01 0.01 0.01 0.01 0.01 0.01 0.01 0.00 0.00 0.00 0.00 0.00 0.00 0.00 0.00 0.00 0.00 0.00 0.00 0.00 0.00 0.00 0.00 0.00 0.00 0.00 0.00
0.00 0.00 0.00 0.00 0.00 0.00 0.00 0.00 0.00 0.00 0.00 0.00 0.00 0.00 0.00 0.00 0.00 0.00 0.00 0.00 0.01 0.01 0.01 0.01 0.01 0.01 0.01 0.01 0.01 0.01 0.01 0.00 0.00 0.00 0.00 0.00 0.00 0.00 0.00 0.00 0.00 0.00 0.00 0.00 0.00 0.00 0.00 0.00 0.00
0.00 0.00 0.00 0.00 0.00 0.00 0.00 0.00 0.00 0.00 0.00 0.00 0.00 0.00 0.00 0.00 0.00 0.00 0.00 0.00 0.00 0.01 0.01 0.01 0.01 0.01 0.01 0.01 0.01 0.01 0.01 0.01 0.01 0.00 0.00 0.00 0.00 0.00 0.00 0.00 0.00 0.00 0.00 0.00 0.00 0.00 0.00 0.00 0.00
0.00 0.00 0.00 0.00 0.00 0.00 0.00 0.00 0.00 0.00 0.00 0.00 0.00 0.00 0.00 0.00 0.00 0.00 0.00 0.00 0.00 0.00 0.01 0.01 0.01 0.01 0.02 0.01 0.01 0.01 0.01 0.01 0.00 0.00 0.00 0.01 0.00 0.00 0.00 0.00 0.00 0.00 0.00 0.00 0.00 0.00 0.00 0.00 0.00
0.00 0.00 0.00 0.00 0.00 0.00 0.00 0.00 0.00 0.00 0.00 0.00 0.00 0.00 0.00 0.00 0.00 0.00 0.00 0.00 0.00 0.00 0.00 0.01 0.01 0.01 0.02 0.02 0.02 0.01 0.01 0.01 0.00 0.00 0.00 0.00 0.00 0.00 0.00 0.00 0.00 0.00 0.00 0.00 0.00 0.00 0.00 0.00 0.00
0.00 0.00 0.00 0.00 0.00 0.00 0.00 0.00 0.00 0.00 0.00 0.00 0.00 0.00 0.00 0.00 0.00 0.00 0.00 0.00 0.00 0.00 0.00 0.01 0.01 0.01 0.02 0.02 0.02 0.01 0.01 0.01 0.01 0.01 0.00 0.00 0.00 0.00 0.00 0.00 0.00 0.00 0.00 0.00 0.00 0.00 0.00 0.00 0.00
0.01 0.01 0.01 0.00 0.00 0.00 0.00 0.00 0.00 0.00 0.00 0.00 0.00 0.00 0.00 0.01 0.01 0.01 0.01 0.01 0.00 0.00 0.00 0.00 0.01 0.01 0.01 0.01 0.01 0.01 0.01 0.01 0.01 0.01 0.00 0.00 0.00 0.00 0.00 0.00 0.00 0.00 0.00 0.00 0.00 0.00 0.00 0.00 0.00
0.02 0.02 0.01 0.01 0.00 0.01 0.01 0.01 0.00 0.00 0.00 0.00 0.00 0.00 0.00 0.00 0.01 0.02 0.02 0.01 0.01 0.01 0.01 0.01 0.01 0.01 0.01 0.01 0.01 0.01 0.01 0.01 0.01 0.00 0.00 0.00 0.00 0.00 0.00 0.00 0.00 0.00 0.00 0.00 0.00 0.00 0.00 0.00 0.00
0.02 0.02 0.01 0.00 0.00 0.01 0.01 0.01 0.00 0.00 0.00 0.01 0.01 0.01 0.01 0.00 0.00 0.01 0.02 0.02 0.02 0.02 0.01 0.01 0.01 0.01 0.02 0.02 0.02 0.02 0.02 0.02 0.01 0.00 0.00 0.00 0.01 0.00 0.00 0.00 0.00 0.00 0.00 0.00 0.00 0.00 0.00 0.00 0.00
0.02 0.01 0.01 0.01 0.01 0.01 0.01 0.01 0.00 0.01 0.01 0.01 0.01 0.02 0.02 0.01 0.01 0.00 0.00 0.01 0.01 0.01 0.02 0.02 0.02 0.01 0.02 0.02 0.03 0.03 0.03 0.03 0.02 0.01 0.01 0.00 0.00 0.01 0.00 0.00 0.00 0.00 0.00 0.00 0.00 0.00 0.00 0.00 0.00
0.01 0.01 0.01 0.01 0.01 0.01 0.01 0.01 0.00 0.01 0.01 0.01 0.01 0.01 0.02 0.03 0.02 0.01 0.01 0.00 0.00 0.00 0.01 0.02 0.02 0.02 0.03 0.03 0.03 0.04 0.05 0.05 0.04 0.04 0.02 0.01 0.01 0.01 0.01 0.01 0.01 0.00 0.00 0.00 0.00 0.00 0.00 0.00 0.00
0.03 0.02 0.02 0.01 0.01 0.01 0.00 0.00 0.01 0.01 0.01 0.01 0.01 0.02 0.02 0.03 0.03 0.03 0.02 0.01 0.01 0.01 0.01 0.02 0.02 0.03 0.03 0.03 0.03 0.04 0.05 0.06 0.05 0.04 0.03 0.02 0.01 0.01 0.01 0.01 0.01 0.01 0.00 0.00 0.00 0.00 0.00 0.00 0.00
0.04 0.03 0.02 0.02 0.02 0.02 0.01 0.00 0.00 0.01 0.00 0.00 0.01 0.02 0.02 0.03 0.03 0.04 0.03 0.03 0.02 0.01 0.01 0.02 0.03 0.03 0.03 0.03 0.03 0.03 0.03 0.04 0.05 0.06 0.06 0.05 0.04 0.02 0.01 0.01 0.01 0.01 0.01 0.00 0.00 0.00 0.01 0.01 0.01
0.05 0.04 0.02 0.02 0.03 0.03 0.03 0.02 0.01 0.00 0.00 0.01 0.01 0.02 0.02 0.02 0.03 0.03 0.03 0.04 0.04 0.03 0.02 0.02 0.02 0.02 0.03 0.03 0.03 0.03 0.03 0.04 0.06 0.08 0.08 0.08 0.08 0.07 0.04 0.03 0.01 0.01 0.01 0.01 0.00 0.00 0.01 0.01 0.01
0.04 0.04 0.03 0.03 0.04 0.04 0.03 0.03 0.01 0.01 0.01 0.01 0.01 0.01 0.01 0.01 0.02 0.01 0.02 0.03 0.03 0.03 0.03 0.03 0.02 0.02 0.03 0.03 0.03 0.03 0.02 0.03 0.04 0.05 0.07 0.07 0.07 0.08 0.08 0.06 0.04 0.03 0.01 0.01 0.01 0.01 0.01 0.01 0.01
0.04 0.05 0.05 0.05 0.07 0.07 0.02 0.02 0.01 0.01 0.01 0.00 0.00 0.01 0.01 0.01 0.01 0.01 0.01 0.01 0.02 0.02 0.02 0.02 0.02 0.03 0.03 0.03 0.04 0.04 0.03 0.02 0.02 0.05 0.07 0.06 0.06 0.06 0.06 0.07 0.06 0.05 0.04 0.03 0.02 0.01 0.01 0.01 0.01
0.04 0.07 0.09 0.10 0.11 0.06 0.02 0.01 0.01 0.00 0.00 0.00 0.00 0.00 0.00 0.00 0.00 0.00 0.01 0.01 0.01 0.01 0.02 0.02 0.02 0.02 0.03 0.03 0.04 0.04 0.03 0.03 0.02 0.03 0.03 0.04 0.05 0.06 0.06 0.06 0.06 0.06 0.05 0.05 0.04 0.03 0.02 0.02 0.01
0.03 0.05 0.08 0.07 0.06 0.03 0.01 0.01 0.01 0.00 0.00 0.00 0.00 0.00 0.00 0.00 0.00 0.00 0.00 0.00 0.00 0.00 0.01 0.01 0.02 0.02 0.02 0.03 0.03 0.04 0.04 0.04 0.04 0.03 0.03 0.03 0.04 0.05 0.06 0.06 0.05 0.05 0.05 0.05 0.05 0.05 0.04 0.04 0.03
0.03 0.04 0.05 0.06 0.04 0.03 0.02 0.01 0.00 0.00 0.00 0.00 0.00 0.00 0.00 0.00 0.00 0.00 0.00 0.00 0.00 0.00 0.00 0.00 0.01 0.01 0.02 0.02 0.02 0.02 0.04 0.05 0.06 0.05 0.04 0.04 0.04 0.04 0.05 0.05 0.04 0.04 0.04 0.04 0.04 0.04 0.04 0.04 0.04
0.03 0.04 0.05 0.08 0.06 0.03 0.01 0.01 0.01 0.01 0.00 0.00 0.00 0.00 0.00 0.00 0.00 0.00 0.00 0.00 0.00 0.00 0.00 0.00 0.00 0.00 0.01 0.01 0.01 0.01 0.02 0.03 0.04 0.05 0.05 0.04 0.04 0.04 0.04 0.04 0.05 0.05 0.05 0.05 0.05 0.05 0.04 0.04 0.04
0.04 0.04 0.05 0.06 0.05 0.04 0.02 0.02 0.02 0.01 0.00 0.00 0.00 0.00 0.00 0.00 0.00 0.00 0.00 0.00 0.00 0.00 0.00 0.00 0.00 0.00 0.00 0.00 0.01 0.01 0.01 0.01 0.02 0.02 0.04 0.04 0.04 0.04 0.04 0.04 0.04 0.04 0.04 0.05 0.05 0.05 0.05 0.04 0.04
0.03 0.03 0.04 0.06 0.05 0.03 0.03 0.02 0.01 0.00 0.00 0.00 0.00 0.00 0.00 0.00 0.00 0.00 0.00 0.00 0.00 0.00 0.00 0.00 0.00 0.00 0.00 0.00 0.00 0.00 0.01 0.01 0.01 0.02 0.02 0.03 0.03 0.03 0.03 0.04 0.04 0.04 0.03 0.03 0.03 0.03 0.03 0.03 0.03
MSLP
1016.54 1016.40 1016.34 1016.31 1016.27 1016.19 1016.05 1015.86 1015.66 1015.46 1015.32 1015.25 1015.24 1015.27 1015.28 1015.23 1015.11 1014.91 1014.69 1014.49 1014.41 1014.50 1014.78 1015.26 1015.89 1016.58 1017.25 1017.81 1018.22 1018.48 1018.61 1018.67 1018.72 1018.80 1018.95 1019.15 1019.39 1019.62 1019.81 1019.94 1020.01 1020.04 1020.09 1020.17 1020.31 1020.52 1020.77 1021.03 1021.26
1016.72 1016.60 1016.54 1016.50 1016.43 1016.29 1016.06 1015.77 1015.44 1015.12 1014.87 1014.71 1014.64 1014.64 1014.66 1014.67 1014.63 1014.54 1014.42 1014.33 1014.33 1014.46 1014.78 1015.27 1015.89 1016.57 1017.23 1017.79 1018.23 1018.52 1018.69 1018.79 1018.88 1019.00 1019.17 1019.38 1019.61 1019.84 1020.01 1020.13 1020.19 1020.22 1020.26 1020.33 1020.47 1020.67 1020.92 1021.17 1021.40
1016.88 1016.74 1016.67 1016.60 1016.48 1016.27 1015.97 1015.58 1015.15 1014.73 1014.39 1014.16 1014.06 1014.06 1014.12 1014.20 1014.27 1014.29 1014.29 1014.31 1014.39 1014.58 1014.91 1015.39 1015.97 1016.61 1017.24 1017.78 1018.22 1018.53 1018.75 1018.90 1019.03 1019.19 1019.38 1019.61 1019.84 1020.05 1020.22 1020.32 1020.37 1020.40 1020.44 1020.52 1020.66 1020.85 1021.09 1021.33 1021.53
1016.98 1016.82 1016.71 1016.59 1016.41 1016.14 1015.77 1015.31 1014.81 1014.33 1013.94 1013.67 1013.55 1013.57 1013.68 1013.85 1014.02 1014.16 1014.28 1014.41 1014.56 1014.80 1015.14 1015.59 1016.13 1016.70 1017.27 1017.77 1018.19 1018.52 1018.76 1018.96 1019.14 1019.34 1019.57 1019.81 1020.05 1020.26 1020.41 1020.51 1020.57 1020.60 1020.65 1020.74 1020.88 1021.08 1021.30 1021.53 1021.71
1017.03 1016.82 1016.65 1016.47 1016.23 1015.91 1015.48 1014.98 1014.45 1013.95 1013.54 1013.28 1013.17 1013.22 1013.38 1013.62 1013.88 1014.13 1014.35 1014.57 1014.80 1015.07 1015.41 1015.83 1016.30 1016.81 1017.31 1017.76 1018.15 1018.47 1018.74 1018.97 1019.20 1019.44 1019.70 1019.97 1020.22 1020.43 1020.59 1020.70 1020.77 1020.82 1020.89 1021.00 1021.16 1021.36 1021.58 1021.78 1021.94
1017.04 1016.76 1016.52 1016.28 1015.98 1015.61 1015.16 1014.65 1014.12 1013.64 1013.26 1013.02 1012.94 1013.02 1013.23 1013.52 1013.85 1014.17 1014.47 1014.75 1015.04 1015.34 1015.68 1016.06 1016.48 1016.91 1017.34 1017.74 1018.09 1018.41 1018.68 1018.94 1019.21 1019.49 1019.78 1020.07 1020.33 1020.56 1020.73 1020.86 1020.96 1021.04 1021.14 1021.28 1021.46 1021.67 1021.88 1022.06 1022.19
1017.05 1016.69 1016.38 1016.06 1015.71 1015.31 1014.85 1014.36 1013.88 1013.45 1013.12 1012.93 1012.89 1013.00 1013.24 1013.55 1013.90 1014.26 1014.60 1014.92 1015.23 1015.55 1015.88 1016.24 1016.62 1017.00 1017.37 1017.72 1018.04 1018.33 1018.61 1018.89 1019.18 1019.48 1019.80 1020.11 1020.39 1020.64 1020.83 1020.98 1021.11 1021.23 1021.37 1021.53 1021.73 1021.95 1022.15 1022.32 1022.42
1017.09 1016.66 1016.26 1015.88 1015.48 1015.06 1014.61 1014.17 1013.75 1013.39 1013.14 1013.00 1013.01 1013.14 1013.37 1013.67 1014.01 1014.36 1014.70 1015.03 1015.35 1015.68 1016.01 1016.36 1016.71 1017.06 1017.39 1017.70 1017.98 1018.26 1018.53 1018.81 1019.11 1019.43 1019.76 1020.09 1020.38 1020.64 1020.86 1021.03 1021.18 1021.34 1021.50 1021.70 1021.91 1022.13 1022.33 1022.48 1022.56
1017.20 1016.70 1016.23 1015.78 1015.34 1014.91 1014.48 1014.09 1013.74 1013.46 1013.29 1013.21 1013.25 1013.38 1013.59 1013.86 1014.15 1014.46 1014.76 1015.07 1015.39 1015.71 1016.05 1016.40 1016.74 1017.07 1017.38 1017.67 1017.93 1018.19 1018.45 1018.72 1019.02 1019.35 1019.68 1020.01 1020.31 1020.57 1020.80 1020.99 1021.16 1021.33 1021.52 1021.73 1021.95 1022.18 1022.37 1022.51 1022.58
1017.40 1016.83 1016.30 1015.79 1015.30 1014.86 1014.46 1014.11 1013.82 1013.63 1013.52 1013.49 1013.55 1013.67 1013.85 1014.05 1014.28 1014.51 1014.77 1015.04 1015.33 1015.65 1015.99 1016.35 1016.70 1017.03 1017.34 1017.61 1017.87 1018.11 1018.36 1018.62 1018.91 1019.22 1019.55 1019.87 1020.16 1020.43 1020.65 1020.85 1021.02 1021.21 1021.40 1021.61 1021.84 1022.06 1022.25 1022.39 1022.46
1017.67 1017.05 1016.45 1015.88 1015.36 1014.89 1014.49 1014.18 1013.95 1013.81 1013.75 1013.77 1013.83 1013.94 1014.07 1014.21 1014.35 1014.52 1014.70 1014.93 1015.19 1015.50 1015.85 1016.21 1016.58 1016.92 1017.24 1017.52 1017.77 1018.00 1018.23 1018.49 1018.76 1019.06 1019.37 1019.67 1019.96 1020.21 1020.43 1020.61 1020.79 1020.96 1021.16 1021.36 1021.58 1021.80 1021.99 1022.13 1022.20
1017.98 1017.31 1016.66 1016.03 1015.46 1014.96 1014.55 1014.25 1014.04 1013.94 1013.92 1013.95 1014.03 1014.12 1014.20 1014.28 1014.37 1014.46 1014.59 1014.76 1014.99 1015.29 1015.63 1016.00 1016.37 1016.73 1017.06 1017.34 1017.60 1017.83 1018.05 1018.30 1018.56 1018.84 1019.14 1019.43 1019.70 1019.94 1020.14 1020.32 1020.48 1020.65 1020.82 1021.02 1021.23 1021.44 1021.63 1021.77 1021.84
1018.29 1017.58 1016.87 1016.19 1015.56 1015.02 1014.58 1014.26 1014.05 1013.96 1013.96 1014.01 1014.09 1014.17 1014.24 1014.29 1014.32 1014.37 1014.45 1014.58 1014.78 1015.04 1015.36 1015.73 1016.10 1016.46 1016.79 1017.08 1017.34 1017.57 1017.80 1018.04 1018.30 1018.58 1018.86 1019.14 1019.40 1019.63 1019.83 1019.99 1020.14 1020.29 1020.46 1020.64 1020.85 1021.05 1021.23 1021.37 1021.45
1018.57 1017.82 1017.06 1016.32 1015.63 1015.03 1014.54 1014.18 1013.96 1013.86 1013.87 1013.94 1014.03 1014.13 1014.20 1014.25 1014.27 1014.30 1014.34 1014.44 1014.60 1014.83 1015.11 1015.45 1015.79 1016.13 1016.45 1016.74 1016.99 1017.23 1017.46 1017.70 1017.97 1018.25 1018.53 1018.82 1019.08 1019.30 1019.50 1019.66 1019.80 1019.94 1020.10 1020.28 1020.47 1020.67 1020.84 1020.98 1021.05
1018.80 1018.02 1017.21 1016.41 1015.66 1014.99 1014.44 1014.04 1013.79 1013.68 1013.69 1013.78 1013.91 1014.05 1014.16 1014.24 1014.29 1014.32 1014.36 1014.43 1014.54 1014.72 1014.94 1015.21 1015.50 1015.80 1016.08 1016.34 1016.58 1016.81 1017.05 1017.30 1017.57 1017.86 1018.16 1018.45 1018.71 1018.95 1019.15 1019.31 1019.46 1019.61 1019.77 1019.95 1020.14 1020.33 1020.50 1020.62 1020.68
1018.97 1018.16 1017.31 1016.46 1015.65 1014.93 1014.33 1013.88 1013.60 1013.48 1013.50 1013.63 1013.81 1014.01 1014.20 1014.35 1014.45 1014.51 1014.56 1014.61 1014.67 1014.77 1014.91 1015.09 1015.29 1015.50 1015.72 1015.93 1016.14 1016.36 1016.59 1016.84 1017.12 1017.41 1017.72 1018.02 1018.30 1018.55 1018.76 1018.95 1019.12 1019.28 1019.45 1019.63 1019.83 1020.02 1020.18 1020.29 1020.33
1019.09 1018.26 1017.39 1016.50 1015.66 1014.89 1014.25 1013.77 1013.47 1013.36 1013.40 1013.58 1013.83 1014.12 1014.40 1014.64 1014.82 1014.93 1015.00 1015.02 1015.03 1015.04 1015.07 1015.13 1015.21 1015.31 1015.43 1015.57 1015.73 1015.91 1016.11 1016.35 1016.62 1016.91 1017.22 1017.53 1017.82 1018.08 1018.32 1018.52 1018.71 1018.90 1019.10 1019.30 1019.51 1019.70 1019.86 1019.96 1019.98
1019.17 1018.34 1017.46 1016.56 1015.70 1014.92 1014.27 1013.78 1013.48 1013.38 1013.46 1013.69 1014.03 1014.42 1014.81 1015.15 1015.42 1015.59 1015.67 1015.67 1015.62 1015.53 1015.44 1015.36 1015.30 1015.27 1015.27 1015.31 1015.39 1015.51 1015.67 1015.87 1016.11 1016.38 1016.66 1016.96 1017.24 1017.51 1017.77 1018.00 1018.22 1018.44 1018.66 1018.89 1019.12 1019.33 1019.49 1019.59 1019.60
1019.23 1018.41 1017.53 1016.65 1015.80 1015.04 1014.40 1013.93 1013.65 1013.58 1013.71 1014.01 1014.43 1014.92 1015.41 1015.85 1016.20 1016.42 1016.52 1016.50 1016.38 1016.20 1015.98 1015.75 1015.55 1015.38 1015.26 1015.19 1015.18 1015.21 1015.30 1015.44 1015.61 1015.83 1016.07 1016.32 1016.59 1016.85 1017.10 1017.35 1017.60 1017.85 1018.11 1018.37 1018.62 1018.84 1019.02 1019.13 1019.14
1019.28 1018.47 1017.62 1016.78 1015.98 1015.26 1014.66 1014.23 1013.99 1013.97 1014.15 1014.51 1015.00 1015.57 1016.14 1016.66 1017.08 1017.34 1017.45 1017.40 1017.22 1016.94 1016.61 1016.26 1015.93 1015.64 1015.40 1015.22 1015.11 1015.05 1015.05 1015.09 1015.18 1015.31 1015.47 1015.66 1015.87 1016.10 1016.35 1016.60 1016.87 1017.14 1017.43 1017.71 1017.99 1018.23 1018.43 1018.55 1018.58
1019.33 1018.54 1017.75 1016.96 1016.22 1015.57 1015.04 1014.66 1014.47 1014.50 1014.72 1015.13 1015.67 1016.29 1016.91 1017.48 1017.93 1018.21 1018.31 1018.24 1018.01 1017.66 1017.25 1016.80 1016.38 1015.99 1015.66 1015.40 1015.19 1015.04 1014.94 1014.88 1014.86 1014.88 1014.93 1015.03 1015.17 1015.34 1015.55 1015.80 1016.06 1016.35 1016.65 1016.94 1017.23 1017.50 1017.71 1017.86 1017.92
1019.42 1018.66 1017.91 1017.20 1016.54 1015.96 1015.50 1015.19 1015.05 1015.12 1015.37 1015.79 1016.35 1016.98 1017.61 1018.19 1018.63 1018.91 1019.00 1018.90 1018.63 1018.25 1017.79 1017.30 1016.83 1016.40 1016.02 1015.70 1015.43 1015.21 1015.01 1014.84 1014.70 1014.60 1014.53 1014.52 1014.56 1014.66 1014.81 1015.01 1015.26 1015.53 1015.82 1016.12 1016.41 1016.67 1016.90 1017.06 1017.17
1019.59 1018.86 1018.17 1017.52 1016.94 1016.44 1016.05 1015.79 1015.70 1015.78 1016.03 1016.44 1016.97 1017.57 1018.17 1018.71 1019.12 1019.37 1019.43 1019.31 1019.03 1018.64 1018.17 1017.69 1017.23 1016.81 1016.44 1016.11 1015.81 1015.54 1015.27 1015.01 1014.76 1014.53 1014.34 1014.20 1014.12 1014.13 1014.20 1014.35 1014.54 1014.78 1015.03 1015.30 1015.56 1015.80 1016.02 1016.20 1016.33
1019.91 1019.21 1018.56 1017.97 1017.46 1017.02 1016.69 1016.47 1016.39 1016.46 1016.69 1017.05 1017.52 1018.05 1018.58 1019.04 1019.39 1019.58 1019.61 1019.46 1019.19 1018.82 1018.40 1017.97 1017.56 1017.20 1016.88 1016.59 1016.31 1016.02 1015.71 1015.38 1015.03 1014.69 1014.38 1014.12 1013.93 1013.82 1013.81 1013.87 1013.99 1014.16 1014.35 1014.55 1014.76 1014.96 1015.14 1015.31 1015.45
1020.44 1019.76 1019.15 1018.61 1018.14 1017.74 1017.43 1017.23 1017.14 1017.18 1017.35 1017.64 1018.02 1018.44 1018.86 1019.22 1019.48 1019.61 1019.59 1019.43 1019.17 1018.84 1018.48 1018.14 1017.83 1017.57 1017.33 1017.11 1016.88 1016.61 1016.29 1015.92 1015.50 1015.07 1014.65 1014.28 1013.98 1013.77 1013.65 1013.61 1013.64 1013.71 1013.81 1013.93 1014.04 1014.16 1014.28 1014.41 1014.54
1021.22 1020.56 1019.98 1019.46 1019.01 1018.62 1018.32 1018.09 1017.96 1017.95 1018.04 1018.23 1018.50 1018.80 1019.10 1019.35 1019.51 1019.55 1019.48 1019.31 1019.07 1018.79 1018.51 1018.26 1018.06 1017.90 1017.78 1017.65 1017.48 1017.25 1016.95 1016.56 1016.10 1015.60 1015.11 1014.65 1014.25 1013.93 1013.71 1013.56 1013.48 1013.45 1013.43 1013.43 1013.44 1013.45 1013.48 1013.54 1013.62
1022.26 1021.62 1021.05 1020.54 1020.08 1019.68 1019.34 1019.07 1018.88 1018.78 1018.78 1018.87 1019.02 1019.19 1019.37 1019.50 1019.56 1019.53 1019.41 1019.22 1018.98 1018.75 1018.53 1018.37 1018.27 1018.22 1018.18 1018.14 1018.05 1017.87 1017.59 1017.20 1016.73 1016.20 1015.65 1015.12 1014.65 1014.24 1013.92 1013.67 1013.48 1013.33 1013.19 1013.06 1012.94 1012.84 1012.76 1012.71 1012.72
1023.50 1022.90 1022.33 1021.81 1021.32 1020.87 1020.47 1020.13 1019.86 1019.68 1019.58 1019.56 1019.60 1019.66 1019.73 1019.76 1019.72 1019.62 1019.45 1019.24 1019.01 1018.79 1018.62 1018.52 1018.49 1018.50 1018.53 1018.55 1018.50 1018.37 1018.12 1017.74 1017.28 1016.73 1016.16 1015.60 1015.07 1014.60 1014.20 1013.86 1013.57 1013.30 1013.04 1012.79 1012.55 1012.32 1012.12 1011.96 1011.87
1024.88 1024.30 1023.73 1023.17 1022.63 1022.12 1021.64 1021.21 1020.86 1020.59 1020.40 1020.29 1020.24 1020.22 1020.19 1020.14 1020.03 1019.87 1019.66 1019.42 1019.17 1018.96 1018.80 1018.71 1018.70 1018.73 1018.78 1018.82 1018.79 1018.67 1018.44 1018.09 1017.63 1017.10 1016.53 1015.96 1015.41 1014.90 1014.45 1014.04 1013.66 1013.31 1012.95 1012.59 1012.23 1011.89 1011.57 1011.31 1011.11
1026.25 1025.69 1025.11 1024.51 1023.90 1023.31 1022.74 1022.23 1021.80 1021.45 1021.19 1021.01 1020.89 1020.81 1020.72 1020.62 1020.46 1020.26 1020.01 1019.74 1019.47 1019.23 1019.04 1018.93 1018.88 1018.88 1018.90 1018.91 1018.86 1018.73 1018.50 1018.17 1017.74 1017.23 1016.69 1016.13 1015.59 1015.08 1014.60 1014.15 1013.72 1013.30 1012.87 1012.43 1011.98 1011.54 1011.12 1010.75 1010.45
Thickness
5710 5715 5720 5721 5715 5708 5706 5712 5718 5716 5721 5726 5727 5726 5724 5724 5720 5716 5723 5728 5727 5722 5717 5710 5707 5704 5702 5700 5699 5697 5696 5695 5693 5692 5691 5691 5690 5689 5689 5689 5689 5689 5688 5688 5688 5687 5687 5687 5687
5706 5712 5715 5713 5703 5697 5704 5713 5713 5718 5723 5723 5724 5724 5723 5725 5725 5723 5723 5724 5723 5720 5715 5711 5706 5704 5701 5699 5697 5696 5695 5694 5692 5691 5690 5689 5688 5688 5687 5687 5687 5686 5686 5686 5685 5685 5684 5684 5684
5703 5708 5706 5703 5697 5699 5704 5712 5715 5717 5719 5720 5720 5723 5724 5722 5723 5723 5724 5722 5720 5717 5713 5709 5705 5702 5700 5698 5696 5695 5693 5692 5691 5690 5689 5688 5687 5686 5685 5685 5684 5684 5684 5684 5683 5682 5682 5682 5681
5699 5700 5699 5694 5692 5702 5707 5712 5714 5712 5713 5717 5719 5718 5720 5720 5722 5723 5722 5720 5718 5714 5711 5707 5703 5701 5699 5697 5695 5693 5692 5691 5690 5688 5687 5686 5685 5684 5683 5682 5682 5682 5681 5681 5681 5680 5679 5679 5679
5692 5690 5683 5684 5690 5700 5705 5708 5710 5710 5712 5714 5715 5715 5716 5717 5720 5719 5718 5717 5715 5712 5708 5704 5701 5699 5697 5695 5693 5692 5690 5689 5688 5687 5685 5684 5683 5682 5681 5680 5679 5679 5679 5678 5678 5677 5677 5676 5676
5679 5680 5674 5677 5687 5695 5700 5703 5705 5707 5709 5710 5711 5712 5713 5713 5714 5715 5715 5713 5711 5709 5705 5702 5698 5696 5694 5693 5691 5690 5688 5687 5686 5684 5683 5682 5681 5680 5679 5678 5677 5676 5676 5676 5675 5675 5674 5674 5674
5667 5667 5669 5675 5680 5686 5693 5698 5700 5704 5705 5708 5712 5708 5710 5709 5710 5711 5710 5709 5707 5705 5702 5700 5697 5694 5692 5691 5689 5687 5686 5685 5683 5682 5681 5680 5679 5677 5676 5675 5675 5674 5674 5673 5673 5672 5672 5671 5671
5662 5661 5661 5668 5672 5679 5688 5692 5697 5699 5702 5707 5708 5706 5707 5708 5706 5705 5704 5703 5702 5700 5699 5698 5696 5694 5691 5689 5687 5685 5684 5682 5681 5680 5678 5677 5676 5675 5674 5673 5672 5672 5671 5671 5670 5670 5669 5669 5669
5652 5648 5654 5662 5666 5673 5680 5683 5688 5693 5696 5697 5700 5703 5705 5704 5701 5698 5696 5696 5696 5695 5696 5695 5694 5692 5691 5688 5686 5683 5681 5680 5678 5677 5676 5674 5674 5673 5672 5671 5670 5670 5669 5669 5668 5668 5667 5667 5667
5639 5641 5653 5661 5665 5668 5670 5675 5680 5684 5687 5689 5692 5694 5696 5696 5694 5693 5693 5693 5692 5692 5692 5693 5692 5690 5689 5687 5685 5683 5681 5679 5677 5676 5674 5673 5673 5672 5671 5669 5668 5668 5667 5666 5666 5666 5665 5665 5666
5631 5636 5646 5650 5654 5657 5660 5665 5672 5676 5679 5687 5690 5689 5688 5688 5689 5690 5691 5692 5692 5691 5690 5690 5689 5688 5686 5685 5684 5682 5680 5679 5677 5675 5674 5672 5671 5670 5669 5668 5667 5666 5665 5665 5664 5664 5664 5664 5665
5619 5626 5632 5638 5640 5645 5651 5657 5662 5668 5677 5683 5687 5686 5684 5684 5686 5688 5689 5689 5689 5688 5687 5686 5686 5685 5684 5683 5682 5681 5679 5678 5676 5675 5673 5671 5670 5669 5668 5667 5666 5665 5665 5664 5664 5663 5663 5663 5663
5607 5614 5619 5624 5628 5634 5640 5646 5653 5662 5670 5674 5677 5677 5680 5682 5684 5685 5686 5686 5685 5684 5684 5684 5683 5682 5681 5680 5679 5679 5678 5677 5675 5673 5671 5670 5669 5668 5667 5666 5665 5664 5663 5663 5663 5662 5661 5661 5661
5596 5602 5607 5613 5618 5624 5628 5636 5641 5655 5660 5664 5667 5670 5674 5677 5679 5679 5680 5681 5681 5681 5681 5681 5679 5679 5678 5678 5677 5676 5676 5674 5673 5672 5670 5669 5668 5667 5666 5664 5663 5663 5662 5661 5661 5661 5660 5659 5659
5583 5587 5594 5602 5607 5613 5618 5625 5637 5647 5650 5653 5659 5663 5666 5669 5671 5674 5676 5677 5677 5677 5677 5676 5676 5675 5675 5674 5674 5673 5673 5672 5671 5670 5669 5667 5666 5665 5664 5663 5662 5661 5660 5659 5658 5658 5657 5657 5657
5570 5575 5583 5594 5597 5602 5604 5618 5634 5637 5639 5645 5650 5655 5657 5660 5664 5667 5670 5671 5672 5672 5672 5672 5671 5671 5671 5671 5670 5670 5669 5669 5668 5668 5667 5665 5664 5663 5662 5661 5661 5659 5658 5657 5656 5656 5655 5655 5654
5558 5566 5575 5582 5586 5591 5595 5609 5620 5625 5629 5635 5641 5645 5648 5652 5656 5660 5662 5664 5666 5667 5667 5667 5667 5667 5667 5666 5666 5666 5666 5665 5665 5665 5664 5663 5661 5661 5660 5659 5658 5657 5656 5655 5654 5653 5653 5652 5652
5550 5557 5563 5569 5574 5578 5585 5598 5607 5613 5617 5626 5632 5636 5640 5644 5648 5652 5655 5656 5658 5660 5661 5661 5662 5662 5662 5661 5661 5661 5661 5661 5661 5661 5660 5659 5658 5657 5657 5656 5655 5654 5653 5652 5651 5650 5649 5648 5648
5536 5542 5549 5557 5561 5565 5575 5586 5596 5603 5608 5614 5621 5626 5631 5635 5640 5642 5644 5647 5649 5651 5652 5654 5656 5657 5656 5656 5656 5657 5657 5657 5657 5656 5656 5656 5655 5654 5653 5652 5652 5650 5649 5649 5648 5646 5644 5643 5641
5522 5529 5537 5543 5548 5553 5564 5575 5586 5591 5598 5605 5611 5617 5622 5626 5630 5631 5633 5635 5638 5641 5644 5646 5648 5649 5650 5651 5652 5652 5653 5653 5653 5652 5652 5651 5650 5649 5648 5648 5647 5646 5645 5644 5643 5641 5640 5639 5636
5512 5518 5524 5528 5534 5542 5550 5566 5575 5583 5588 5594 5599 5605 5611 5615 5618 5622 5622 5624 5627 5629 5632 5635 5639 5641 5642 5642 5643 5643 5644 5646 5646 5647 5647 5646 5644 5644 5644 5643 5642 5641 5641 5640 5639 5636 5634 5633 5632
5503 5509 5511 5514 5520 5530 5537 5551 5569 5573 5578 5582 5588 5593 5599 5603 5605 5608 5610 5612 5615 5618 5621 5624 5627 5630 5632 5633 5634 5635 5637 5639 5642 5642 5640 5639 5638 5637 5637 5636 5636 5636 5635 5635 5633 5631 5629 5627 5626
5494 5498 5500 5503 5508 5514 5526 5531 5558 5561 5567 5574 5578 5581 5584 5588 5591 5594 5596 5599 5602 5605 5608 5612 5615 5618 5620 5623 5624 5626 5629 5631 5632 5632 5631 5631 5631 5630 5629 5629 5628 5628 5628 5628 5626 5624 5622 5621 5620
5480 5485 5488 5492 5495 5501 5520 5524 5544 5550 5556 5561 5565 5567 5570 5573 5576 5579 5583 5585 5588 5590 5594 5597 5602 5605 5607 5609 5612 5614 5617 5619 5620 5621 5621 5622 5622 5622 5621 5620 5620 5619 5619 5619 5618 5617 5615 5614 5612
5470 5474 5477 5482 5486 5501 5513 5516 5531 5537 5542 5546 5549 5552 5555 5558 5562 5565 5568 5571 5573 5576 5579 5582 5587 5590 5592 5595 5597 5601 5604 5607 5608 5608 5609 5610 5611 5612 5612 5611 5610 5610 5610 5609 5608 5607 5606 5605 5604
5465 5469 5471 5478 5486 5497 5498 5509 5522 5522 5526 5530 5534 5537 5540 5543 5547 5550 5553 5556 5558 5561 5564 5567 5571 5574 5577 5580 5582 5585 5588 5591 5593 5594 5595 5596 5598 5600 5600 5600 5599 5599 5598 5598 5598 5597 5596 5595 5593
5457 5461 5465 5464 5462 5471 5489 5499 5505 5508 5511 5515 5519 5523 5526 5529 5531 5534 5538 5540 5543 5546 5548 5551 5554 5557 5560 5563 5566 5569 5572 5574 5576 5578 5580 5581 5582 5583 5585 5586 5587 5586 5586 5586 5585 5585 5584 5583 5582
5452 5455 5454 5452 5458 5469 5481 5490 5500 5500 5502 5503 5505 5508 5511 5513 5516 5518 5521 5524 5526 5529 5531 5534 5537 5539 5542 5545 5548 5550 5554 5556 5559 5561 5562 5563 5565 5567 5569 5571 5572 5572 5572 5572 5571 5572 5572 5570 5569
5443 5444 5447 5448 5448 5460 5469 5485 5489 5488 5487 5488 5491 5492 5494 5496 5499 5502 5505 5507 5509 5511 5514 5516 5519 5522 5524 5527 5529 5532 5535 5538 5540 5542 5544 5545 5547 5549 5552 5553 5555 5556 5557 5557 5556 5557 5557 5556 5555
5438 5441 5442 5442 5439 5447 5457 5471 5473 5473 5473 5474 5475 5476 5478 5480 5483 5485 5488 5490 5492 5494 5496 5499 5501 5504 5506 5508 5511 5514 5517 5519 5522 5523 5525 5527 5529 5531 5534 5535 5537 5538 5540 5540 5540 5541 5541 5541 5540